sat.trackr.live / text

‹ back to catalog

STARLINK-5248

NORAD 54174 · 2022-141T

PAYLOAD ACTIVE UNKNOWN

§ Identity

Operator
Country
US
Launch date
2022-10-28
Launch site
AFWTR
Launch vehicle
Mass (kg)
RCS (m²)

Purposes: comms

External: N2YO · Heavens-Above · Gunter

§ Orbital elements

Epoch: 2026-09-20T09:16:18.672672Z

Period
93.79 min
Inclination
53.1601°
Eccentricity
0.0001325
Mean motion
15.35396182 rev/d
Perigee alt
458.8 km
Apogee alt
460.6 km
Semi-major
6,837.9 km
B*
3.5070e-5
RAAN
142.3479°
Arg perigee
83.6562°
Mean anomaly
276.4592°
Rev number
21,619

§ Raw data

STARLINK-52481 54174U 22141T   26263.38632723  .00000843  00000+0  35070-4 0  99972 54174  53.1601 142.3479 0001325  83.6562 276.4592 15.35396182216197

JSON: /api/v1/satellites/54174 · /tle

For live sub-satellite position, see the globe view (requires WebGL).

§ Visibility from observer

Set your observer location to see the next 7 days of passes ≥ 10°. The values pass through the URL so the page stays shareable.

No JS? Fill the form by hand. The geolocation button needs JavaScript.